www.pogodaiklimat.ru

Архив погоды в Актобе (Актюбинская область, Казахстан)

Время
(UTC), дата
15 18.05
18 18.05
21 18.05
00 19.05
03 19.05
06 19.05
09 19.05
12 19.05
15 19.05
18 19.05
21 19.05
00 20.05
03 20.05
06 20.05
09 20.05
12 20.05
15 20.05
18 20.05
21 20.05
00 21.05
03 21.05
06 21.05
09 21.05
12 21.05
15 21.05
18 21.05
21 21.05
00 22.05
03 22.05
06 22.05
09 22.05
12 22.05
15 22.05
18 22.05
21 22.05
00 23.05
03 23.05
06 23.05
09 23.05
12 23.05
15 23.05
18 23.05
21 23.05
00 24.05
03 24.05
06 24.05
09 24.05
12 24.05
15 24.05
18 24.05
21 24.05
00 25.05
03 25.05
06 25.05
Ветер
(напр.,м/с)
Видим. Явления Облачность Т
(С)
Тd
(С)
f
(%)
Тe
(С)
Тes
(С)
Комфортность P
(гПа)
Po
(гПа)
Тmin
(С)
Tmax
(С)
R
(мм)
R24
(мм)
S
(см)
ЮЗ 6 10 км {ливн. дождь} 8/4 600 м
[Cb calv Ac As]
+13.3 +2.5 48 +11 +11 по сезону 1009.0 983.2 +16.2
ЮЗ 4 н/о {ливн. дождь} 6/0
[Ac As]
+10.6 +3.9 63 +8 +8 по сезону 1010.2 984.1 +16.2 4
ЮЗ 3 н/о 4/0
[Ac As]
+8.4 +3.3 70 +6 +6 по сезону 1011.1 984.8
ЮЗ 2 н/о 3/0
[Ci fib]
+6.5 +3.7 82 +4 +4 по сезону 1012.2 985.7
З 1 10 км 5/0
[Ci]
+10.1 +5.1 71 +10 +14 тепло 1013.0 986.8
З 3 10 км 8/1 1000 м
[Cu med, cong Ac As Ci]
+15.8 +6.9 55 +15 +22 тепло 1013.7 988.0 +6.4
З 2 10 км 10/10 600 м
[Cb calv]
+15.0 +7.1 59 +15 +15 тепло 1014.5 988.7
З 1 10 км {ливн. дождь} 10/5 600 м
[Cb calv Ac und]
+14.3 +8.2 67 +15 +16 тепло 1014.0 988.2
ЮЗ 3 10 км 10/0
[Ac und Ci fib]
+15.0 +7.9 62 +14 +15 тепло 1012.2 986.5 +17.2
Ю 3 н/о слаб. ливневой дождь 10/10 600 м
[Cb cap]
+13.0 +9.1 77 +12 +12 тепло 1012.2 986.4 +17.2 0.0
З 3 н/о {ливн. дождь} 10/10 600 м
[Cb cap]
+12.2 +9.9 86 +11 +11 тепло 1012.5 986.5
Ю 1 н/о {ливн. дождь} 4/0
[Ac trans]
+11.3 +10.1 92 +11 +11 тепло 1011.7 985.7
С 1 10 км 9/6 600 м
[Cb calv Ac und]
+11.4 +10.2 92 +11 +12 по сезону 1012.0 986.0
СВ 1 10 км 8/4 1000 м
[Cu med, cong Ac trans]
+15.7 +10.0 69 +16 +22 по сезону 1009.9 984.3 +10.9 0.0
ЮВ 1 10 км 8/0
[Ac trans]
+20.0 +10.5 54 +23 +33 комфорт 1006.8 981.6
С 2 10 км {ливн. дождь} 10/6 600 м
[Cb calv Ac As]
+19.3 +12.8 66 +21 +22 комфорт 1001.9 976.9
СВ 2 10 км в посл. час гроза {ливн. дождь} 8/6 600 м
[Cb cap Ci fib]
+14.2 +12.6 90 +14 +14 прохладно 997.7 972.3 +20.2
Ю 3 н/о в посл. час ливневой дождь {гроза} 10/8 600 м
[Cb cap Ac und]
+15.5 +13.6 88 +15 +15 тепло 994.8 969.6 +20.2 11
З 2
{15}
н/о 10/10 600 м
[Cb calv]
+8.8 +6.9 88 +7 +7 прохладно 996.1 970.2
З 2 н/о слаб. ливневой дождь 10/10 600 м
[Cb cap]
+6.6 +5.0 90 +4 +4 прохладно 998.1 972.0
З 4 10 км {ливн. дождь} 10/6 600 м
[Cb calv Ac und]
+6.4 +3.8 83 +3 +3 очень
холодно
1000.5 974.3
З 4 10 км {ливн. дождь} 10/4 600 м
[Cb calv Ac As]
+10.3 +4.8 69 +8 +9 очень
холодно
1000.4 974.6 +5.2 0.3
ЮЗ 2 4000 м слаб. ливневой дождь 10/10 300 м
[Cb cap]
+8.4 +6.3 87 +6 +6 очень
холодно
999.5 973.6
З 3 4000 м слаб. ливневой дождь 10/10 600 м
[Cb cap]
+7.4 +4.9 84 +5 +5 очень
холодно
1001.2 975.0
З 2 10 км {ливн. дождь} 8/6 600 м
[Cb cap Ci fib]
+6.7 +3.4 79 +5 +5 очень
холодно
1001.7 975.5 +11.3
ЮЗ 3 н/о {ливн. дождь} 6/4 600 м
[Cb cap Ci sp]
+4.9 +1.9 81 +1 +1 очень
холодно
1002.3 975.9 +11.3 2
З 2 н/о слаб. ливневой дождь 10/10 600 м
[Cb cap]
+5.0 +2.8 86 +2 +2 очень
холодно
1002.5 976.1
З 1 н/о слаб. дождь 10/10 300 м
[Ns]
+5.3 +3.4 88 +4 +4 прохладно 1005.0 978.6
З 1 10 км {дождь} 5/0
[Ac trans Ci fib]
+6.1 +3.5 83 +5 +8 очень
холодно
1006.8 980.4
З 3 10 км {дождь} 8/1 1000 м
[Cu med, cong Ac As Ci]
+9.5 +1.6 58 +8 +14 очень
холодно
1006.7 980.6 +4.7 3
ЮЗ 4 10 км 10/10 1000 м
[Sc]
+11.5 +0.5 47 +10 +10 очень
холодно
1006.5 980.6
ЮЗ 4 10 км 10/10 600 м
[Cb calv]
+13.0 +1.2 45 +12 +12 очень
холодно
1005.2 979.4
Ю 2 4000 м слаб. ливневой дождь 10/10 300 м
[Cb cap]
+8.6 +6.5 87 +7 +7 очень
холодно
1004.0 977.9 +14.2
В 2 н/о слаб. ливневой дождь 10/10 300 м
[Cb cap]
+7.8 +5.6 86 +6 +6 очень
холодно
1001.0 975.0 +14.2 1
Ю 3 н/о {ливн. дождь} 10/10 600 м
[Cb cap]
+11.5 +10.6 94 +10 +10 по сезону 1000.3 974.6
ЮЗ 3 н/о слаб. ливневой дождь 10/10 300 м
[Cb cap]
+12.0 +10.1 88 +10 +10 по сезону 1000.1 974.4
ЮЗ 4 10 км {ливн. дождь} 10/6 600 м
[Cb calv Ac As]
+13.3 +10.1 81 +12 +12 по сезону 1000.8 975.2
З 10-15
{15}
10 км {ливн. дождь} 8/4 600 м
[Cb calv Ac As]
+16.3 +12.3 77 +14 +15 холодно 1001.5 976.2 +7.4 3
З 10
{15}
10 км 9/6 600 м
[Cb calv Ac As]
+20.0 +12.4 62 +21 +21 комфорт 1002.4 977.4
ЮЗ 2
{15}
10 км {ливн. дождь} 8/5 600 м
[Cb calv Ac As]
+20.9 +10.1 50 +23 +26 комфорт 1002.6 977.6
Ю 2 10 км 8/5 600 м
[Cb calv Ac As]
+16.8 +9.4 62 +17 +17 по сезону 1002.8 977.5 +21.4
СВ 1 н/о 3/0
[Ac As]
+14.2 +9.8 75 +15 +15 по сезону 1003.3 977.8 +21.4 0.0
СВ 2 н/о 8/0
[Ac As]
+13.9 +10.1 78 +13 +13 по сезону 1002.0 976.5
В 1 н/о 6/0
[Ac und Ci fib]
+12.0 +9.0 82 +12 +12 тепло 1002.1 976.4
ЮВ 1 10 км 9/0
[Ac As Ci fib]
+14.5 +9.3 71 +15 +18 по сезону 1002.8 977.3
Ю 1 10 км 9/0
[Ac und]
+21.3 +11.8 55 +23 +29 комфорт 1001.6 976.7 +11.9
Ю 3 10 км 9/0
[Ac As]
+25.8 +10.9 39 +27 +32 жарко 1000.4 976.0
ЮВ 3 10 км 9/0
[Ac As]
+24.5 +9.5 39 +25 +28 комфорт 1000.0 975.4
ЮВ 2 10 км 10/0
[Ac und]
+21.8 +10.9 50 +24 +24 комфорт 999.9 975.1 +26.2
ЮЗ 2 н/о слаб. ливневой дождь 10/8 600 м
[Cb calv Ac und]
+19.3 +11.6 61 +21 +21 комфорт 1001.7 976.6 +26.2
ЮВ 2 н/о в посл. час гроза {ливн. дождь} 6/4 600 м
[Cb cap Ac As]
+15.7 +13.0 84 +16 +16 тепло 1001.1 975.7
ЮЗ 2 н/о слаб. ливневой дождь {гроза} 10/10 600 м
[Cb cap]
+14.7 +13.5 93 +14 +14 тепло 1003.3 977.8
З 1 10 км {ливн. дождь} 10/5 600 м
[Cb calv Ac und]
+12.2 +10.9 92 +12 +13 по сезону 1005.7 979.9
СЗ 2 10 км {ливн. дождь} 8/8 600 м
[Cb calv Ac As]
+14.7 +10.6 76 +14 +17 холодно 1007.5 981.9 +12.0 3
Местоположение метеостанции Актобе (Актюбинская область, Казахстан): широта 50.28 долгота 57.15 высота над уровнем моря 219 м.
В архиве по умолчанию представлена погода в Актобе за последнюю неделю. Архивные данные за месяц целиком и за предыдущие месяцы, начиная с января 2011 года, Вы можете получить, выбрав интересующий диапазон дат из раскрывающегося списка и нажав кнопку "Найти!".
*Определитесь, кто Вы:
Внимание! Время в таблицах - всемирное. Для получения местного времени необходимо прибавить поправку, которая равна 5 ч.
Смотрите также архив погоды в соседних городах и на ближайших метеорологических станциях:
Партнеры нашего сайта:      
Пояснения к столбцам:
  • Ветер - указаны скорость ветра в м/с - средняя за 10 мин, порывы в срок и между сроками (в фигурных скобках) и направление, откуда дует ветер: С - северный,
  • СВ - северо-восточный, В - восточный, ЮВ - юго-восточный, Ю - южный, ЮЗ - юго-западный, З - западный, СЗ - северо-западный.
  • Видимость - горизонтальная дальность видимости в метрах или километрах. При видимости от 1 до 10 км при отсутствии осадков обычно наблюдается дымка, при ухудшении видимости до 1 км и менее - туман. В сухую погоду видимость может ухудшаться дымом, пылью или мглою.
  • Явления - указаны атмосферные явления, наблюдавшиеся в срок или в последний час перед сроком; фигурными скобками обозначены явления, наблюдавшиеся между сроками (за 1-3 часа до срока); квадратными скобками обозначены град или гололедные отложения с указанием их диаметра в мм.
  • Облачность - указаны через наклонную черту общая и нижняя облачность в баллах и высота нижней границы облаков в метрах; квадратными скобками обозначены формы облаков: Ci - перистые, Cs - перисто-слоистые, Cc - перисто-кучевые, Ac - высококучевые, As - высокослоистые, Sc - слоисто-кучевые, Ns - слоисто-дождевые, Cu - кучевые, Cb - кучево-дождевые. Подробнее классификацию облаков см. в Атласе облаков (PDF).
  • T - Температура воздуха - температура, измеренная на высоте 2 м над землей.
  • Td - Температура точки росы - температура, при понижении до которой содержащийся в воздухе водяной пар достигнет насыщения.
  • f - Относительная влажность воздуха - влажноcть воздуха, измеренная на высоте 2 м над землей.
  • Te - Эффективная температура - температура, которую ощущает одетый по сезону человек в тени. Характеристика душности погоды. При расчете учитывается влияние влажности воздуха и скорости ветра на теплоощущения человека.
  • Tes - Эффективная температура на солнце - температура, которую ощущает человек, с поправкой на солнечный нагрев. Характеристика знойности погоды. Зависит от высоты солнца над горизонтом, облачности и скорости ветра. Ночью, в пасмурную погоду, а также при ветре 12 м/с и более поправка равна нулю.
  • P - Атмосферное давление - приведенное к уровню моря атмосферное давление.
  • Po - Атмосферное давление - измеренное на уровне метеостанции атмосферное давление.
  • Tmin - Минимальная температура - минимум температуры воздуха на высоте 2 м над землей.
  • Tmax - Максимальная температура - максимум температуры воздуха на высоте 2 м над землей.
  • R - Количество осадков - Количество выпавших осадков за период времени, мм. При наведении курсора мыши на число - период времени, за который выпало указанное количество осадков.
  • R24 - Количество осадков - Количество выпавших осадков за 24 часа, мм.
  • S - Снежный покров - Высота снежного покрова, см. При наведении курсора мыши на число - состояние снежного покрова и степень покрытия местности в баллах.